User: anonymous   Login
Location: Newark
(39.0622°N, 106.5590°E)
Time: 12:28:14
(UTC+00:00)
Language:

AAUSAT CUBESAT 2 - Orbit

View from above orbital plane
View from above orbital plane
View from above satellite
View from above satellite

Ground track
Ground track

The orbit data is extracted from the following two-line orbital elements,

1 32788U 08021F   20048.84296768  .00000723  00000-0  71110-4 0  9999
2 32788  97.4929  58.7038 0013361  99.7931 260.4799 14.94947468641399
Epoch (UTC): 17 February 2020 20:13:52
Eccentricity: 0.0013361
inclination: 97.4929°
perigee height: 573 km
apogee height: 592 km
right ascension of ascending node: 58.7038°
argument of perigee: 99.7931°
revolutions per day: 14.94947468
mean anomaly at epoch: 260.4799°
orbit number at epoch: 64139

The dashed part of the orbit path shows where the satellite is in the earth's shadow,  

DLR